Location: G�migny
(47.9646°N, 1.6950°E)
Time: 07:50:52
(UTC+00:00)

Cosmos 2173 Rocket - Pass Details

Date: 23 October 2019
Orbit: 944 x 1001 km, 83.0° (Epoch: 13 November)

Event Time Altitude Azimuth Distance (km) Brightness Sun altitude
Rises 18:07:34 0° 354° (N) 3,693 7.1 -13.5°
Reaches altitude 10° 18:10:12 10° 359° (N) 2,732 6.3 -13.9°
Maximum altitude 18:16:16 51° 75° (ENE) 1,201 4.1 -15.0°
Drops below altitude 10° 18:22:13 10° 151° (SSE) 2,678 6.0 -16.0°
Sets 18:24:46 0° 156° (SSE) 3,613 6.7 -16.4°
